Retour au catalogue

CZ-6A DEB

ActifSSO
NORAD 54550·DEBRIS·🇨🇳 China

Lancé Nov 11, 2022 depuis Taiyuan Satellite Launch Center

Loading…

Prochains Passages (prochaines 24 heures)

TLE

FraisSource: Space-Track

Époque: Sep 14, 2026, 09:31 UTC

1 54550U 22151LA  26257.39680179  .00000589  00000-0  20646-3 0  9998
2 54550  98.6577 296.2040 0065790  47.7926 312.8819 14.37532016200846

Suivez CZ-6A DEB en temps réel avec AllMySat

Download on the App Store